Multibeam Report for NBP1304


Ship Name: Nathaniel B. Palmer
Chief Scientist: Durbin, Edward
University of Rhode Island
Source Organization: Marine Geoscience Data System (MGDS)
Start Date: 2013-05-13
End Date: 2013-06-12


View ISO Metadata

Visit the full NCEI Bathymetry Viewer


Multibeam Bathymetry

Cruise Details

Project: Seasonal Trophic Roles of Euphausia superba (STRES) in the Wilhelmina Bay region
Instrument: Kongsberg EM120

Data Quality

Number of Files: 659
Number of Records: 988994
BATHYMETRY DATA Quantity Percentage
Number of Beams 188897854 100%
Number of Good Beams 175578371 92.95%
Number of Zero Beams 13319483 7.05%
Number of Flagged Beams 0 0%
AMPLITUDE DATA Quantity Percentage
Number of Beams 188897854 100%
Number of Good Beams 175578371 92.95%
Number of Zero Beams 13319483 7.05%
Number of Flagged Beams 0 0%
SIDESCAN DATA Quantity Percentage
Number of Pixels 1012729856 100%
Number of Good Pixels 635594103 62.76%
Number of Zero Pixels 0 0%
Number of Flagged Pixels 377135753 37.24%

Navigation Totals

Total Time: 638.173 hours
Total Track Length: 4563.0727 km
Average Speed: 7.15 km/hr (3.8607 knots)

Cruise Bounds

Northern Extent: -54.878136
Southern Extent: -65.1034
Western Extent: -64.93087
Eastern Extent: -57.171535

Limits

Minimum Sonar Depth 5.89 Maximum Sonar Depth 9.01
Minimum Altitude 0 Maximum Altitude 5206.6401
Minimum Depth 29.43 Maximum Depth 5591.1401
Minimum Amplitude 0 Maximum Amplitude 63.5
Minimum Sidescan 0 Maximum Sidescan 63

File Information

Full Resolution Bathymetry as collected (raw): 656

Files File Size Description
0000_20130515_023822_raw.all.mb56.gz 8.94MB Simrad multibeam vendor format
0001_20130515_033822_raw.all.mb56.gz 8.81MB Simrad multibeam vendor format
0002_20130515_043822_raw.all.mb56.gz 10.37MB Simrad multibeam vendor format
0003_20130515_053822_raw.all.mb56.gz 10.13MB Simrad multibeam vendor format
0004_20130515_063822_raw.all.mb56.gz 9.91MB Simrad multibeam vendor format
0005_20130515_073822_raw.all.mb56.gz 9.79MB Simrad multibeam vendor format
0006_20130515_083822_raw.all.mb56.gz 10.34MB Simrad multibeam vendor format
0007_20130515_093822_raw.all.mb56.gz 9.99MB Simrad multibeam vendor format
0008_20130515_103822_raw.all.mb56.gz 10.23MB Simrad multibeam vendor format
0009_20130515_113822_raw.all.mb56.gz 11.21MB Simrad multibeam vendor format
0010_20130515_123822_raw.all.mb56.gz 9.81MB Simrad multibeam vendor format
0011_20130515_133822_raw.all.mb56.gz 9.76MB Simrad multibeam vendor format
0012_20130515_143822_raw.all.mb56.gz 9.71MB Simrad multibeam vendor format
0013_20130515_153822_raw.all.mb56.gz 9.80MB Simrad multibeam vendor format
0014_20130515_163822_raw.all.mb56.gz 9.74MB Simrad multibeam vendor format
0015_20130515_173822_raw.all.mb56.gz 9.89MB Simrad multibeam vendor format
0016_20130515_183822_raw.all.mb56.gz 9.57MB Simrad multibeam vendor format
0017_20130515_193822_raw.all.mb56.gz 9.78MB Simrad multibeam vendor format
0018_20130515_203822_raw.all.mb56.gz 10.10MB Simrad multibeam vendor format
0019_20130515_213822_raw.all.mb56.gz 9.96MB Simrad multibeam vendor format
0020_20130515_223822_raw.all.mb56.gz 6.53MB Simrad multibeam vendor format
0022_20130516_003750_raw.all.mb56.gz 10.42MB Simrad multibeam vendor format
0023_20130516_013750_raw.all.mb56.gz 10.15MB Simrad multibeam vendor format
0024_20130516_023750_raw.all.mb56.gz 10.10MB Simrad multibeam vendor format
0025_20130516_033750_raw.all.mb56.gz 10.15MB Simrad multibeam vendor format
0026_20130516_043750_raw.all.mb56.gz 10.15MB Simrad multibeam vendor format
0027_20130516_053750_raw.all.mb56.gz 10.05MB Simrad multibeam vendor format
0028_20130516_063750_raw.all.mb56.gz 10.18MB Simrad multibeam vendor format
0029_20130516_073750_raw.all.mb56.gz 10.60MB Simrad multibeam vendor format
0030_20130516_083750_raw.all.mb56.gz 9.76MB Simrad multibeam vendor format
0031_20130516_093750_raw.all.mb56.gz 9.84MB Simrad multibeam vendor format
0032_20130516_103750_raw.all.mb56.gz 9.87MB Simrad multibeam vendor format
0033_20130516_113750_raw.all.mb56.gz 9.78MB Simrad multibeam vendor format
0034_20130516_123750_raw.all.mb56.gz 9.94MB Simrad multibeam vendor format
0035_20130516_133750_raw.all.mb56.gz 9.95MB Simrad multibeam vendor format
0036_20130516_143750_raw.all.mb56.gz 10.01MB Simrad multibeam vendor format
0037_20130516_153750_raw.all.mb56.gz 10.10MB Simrad multibeam vendor format
0038_20130516_163750_raw.all.mb56.gz 10.36MB Simrad multibeam vendor format
0039_20130516_173750_raw.all.mb56.gz 10.35MB Simrad multibeam vendor format
0040_20130516_183750_raw.all.mb56.gz 10.10MB Simrad multibeam vendor format
0041_20130516_193750_raw.all.mb56.gz 9.79MB Simrad multibeam vendor format
0042_20130516_203750_raw.all.mb56.gz 9.50MB Simrad multibeam vendor format
0043_20130516_213750_raw.all.mb56.gz 10.63MB Simrad multibeam vendor format
0044_20130516_223750_raw.all.mb56.gz 14.87MB Simrad multibeam vendor format
0045_20130516_233750_raw.all.mb56.gz 22.39MB Simrad multibeam vendor format
0046_20130517_003750_raw.all.mb56.gz 19.17MB Simrad multibeam vendor format
0047_20130517_013750_raw.all.mb56.gz 17.94MB Simrad multibeam vendor format
0048_20130517_023750_raw.all.mb56.gz 15.29MB Simrad multibeam vendor format
0049_20130517_033750_raw.all.mb56.gz 15.28MB Simrad multibeam vendor format
0050_20130517_043750_raw.all.mb56.gz 15.74MB Simrad multibeam vendor format
0051_20130517_053750_raw.all.mb56.gz 17.94MB Simrad multibeam vendor format
0052_20130517_063750_raw.all.mb56.gz 18.34MB Simrad multibeam vendor format
0053_20130517_073750_raw.all.mb56.gz 16.40MB Simrad multibeam vendor format
0054_20130517_083750_raw.all.mb56.gz 16.61MB Simrad multibeam vendor format
0055_20130517_093750_raw.all.mb56.gz 19.72MB Simrad multibeam vendor format
0056_20130517_103750_raw.all.mb56.gz 16.36MB Simrad multibeam vendor format
0057_20130517_113750_raw.all.mb56.gz 16.06MB Simrad multibeam vendor format
0058_20130517_123750_raw.all.mb56.gz 19.87MB Simrad multibeam vendor format
0059_20130517_133750_raw.all.mb56.gz 20.30MB Simrad multibeam vendor format
0060_20130517_143750_raw.all.mb56.gz 19.12MB Simrad multibeam vendor format
0061_20130517_153750_raw.all.mb56.gz 20.11MB Simrad multibeam vendor format
0062_20130517_163750_raw.all.mb56.gz 3.23MB Simrad multibeam vendor format
0062_20130517_165029_raw.all.mb56.gz 19.69MB Simrad multibeam vendor format
0063_20130517_175029_raw.all.mb56.gz 18.86MB Simrad multibeam vendor format
0064_20130517_185029_raw.all.mb56.gz 22.71MB Simrad multibeam vendor format
0065_20130517_195029_raw.all.mb56.gz 21.08MB Simrad multibeam vendor format
0066_20130517_205029_raw.all.mb56.gz 19.01MB Simrad multibeam vendor format
0067_20130517_215029_raw.all.mb56.gz 21.95MB Simrad multibeam vendor format
0068_20130517_225029_raw.all.mb56.gz 19.41MB Simrad multibeam vendor format
0069_20130517_235029_raw.all.mb56.gz 20.75MB Simrad multibeam vendor format
0070_20130518_005029_raw.all.mb56.gz 18.86MB Simrad multibeam vendor format
0071_20130518_015029_raw.all.mb56.gz 18.83MB Simrad multibeam vendor format
0072_20130518_025029_raw.all.mb56.gz 20.11MB Simrad multibeam vendor format
0073_20130518_035029_raw.all.mb56.gz 17.42MB Simrad multibeam vendor format
0074_20130518_045850_raw.all.mb56.gz 17.33MB Simrad multibeam vendor format
0075_20130518_055204_raw.all.mb56.gz 17.90MB Simrad multibeam vendor format
0076_20130518_065204_raw.all.mb56.gz 17.57MB Simrad multibeam vendor format
0077_20130518_075204_raw.all.mb56.gz 18.69MB Simrad multibeam vendor format
0078_20130518_085204_raw.all.mb56.gz 18.18MB Simrad multibeam vendor format
0079_20130518_095204_raw.all.mb56.gz 8.61MB Simrad multibeam vendor format
0080_20130518_102234_raw.all.mb56.gz 20.69MB Simrad multibeam vendor format
0081_20130518_112234_raw.all.mb56.gz 17.41MB Simrad multibeam vendor format
0082_20130518_122234_raw.all.mb56.gz 18.87MB Simrad multibeam vendor format
0083_20130518_132234_raw.all.mb56.gz 19.41MB Simrad multibeam vendor format
0084_20130518_142237_raw.all.mb56.gz 17.61MB Simrad multibeam vendor format
0085_20130518_152237_raw.all.mb56.gz 17.95MB Simrad multibeam vendor format
0086_20130518_162237_raw.all.mb56.gz 17.89MB Simrad multibeam vendor format
0087_20130518_172237_raw.all.mb56.gz 17.87MB Simrad multibeam vendor format
0088_20130518_182237_raw.all.mb56.gz 16.71MB Simrad multibeam vendor format
0089_20130518_192237_raw.all.mb56.gz 18.70MB Simrad multibeam vendor format
0090_20130518_202237_raw.all.mb56.gz 18.70MB Simrad multibeam vendor format
0091_20130518_212237_raw.all.mb56.gz 18.67MB Simrad multibeam vendor format
0092_20130518_222237_raw.all.mb56.gz 18.54MB Simrad multibeam vendor format
0093_20130518_232237_raw.all.mb56.gz 16.08MB Simrad multibeam vendor format
0094_20130519_002237_raw.all.mb56.gz 18.00MB Simrad multibeam vendor format
0095_20130519_012237_raw.all.mb56.gz 17.82MB Simrad multibeam vendor format
0096_20130519_022237_raw.all.mb56.gz 16.75MB Simrad multibeam vendor format
0097_20130519_032237_raw.all.mb56.gz 6.52MB Simrad multibeam vendor format
0098_20130519_034543_raw.all.mb56.gz 19.07MB Simrad multibeam vendor format
0099_20130519_044543_raw.all.mb56.gz 19.07MB Simrad multibeam vendor format
0100_20130519_054543_raw.all.mb56.gz 19.11MB Simrad multibeam vendor format
0101_20130519_064543_raw.all.mb56.gz 19.98MB Simrad multibeam vendor format
0102_20130519_074543_raw.all.mb56.gz 19.28MB Simrad multibeam vendor format
0103_20130519_084543_raw.all.mb56.gz 18.46MB Simrad multibeam vendor format
0104_20130519_094543_raw.all.mb56.gz 18.84MB Simrad multibeam vendor format
0105_20130519_104543_raw.all.mb56.gz 18.70MB Simrad multibeam vendor format
0106_20130519_114543_raw.all.mb56.gz 17.50MB Simrad multibeam vendor format
0107_20130519_124543_raw.all.mb56.gz 16.63MB Simrad multibeam vendor format
0108_20130519_134543_raw.all.mb56.gz 17.16MB Simrad multibeam vendor format
0109_20130519_144543_raw.all.mb56.gz 17.80MB Simrad multibeam vendor format
0110_20130519_154543_raw.all.mb56.gz 17.41MB Simrad multibeam vendor format
0111_20130519_164543_raw.all.mb56.gz 16.85MB Simrad multibeam vendor format
0112_20130519_174543_raw.all.mb56.gz 18.42MB Simrad multibeam vendor format
0113_20130519_184543_raw.all.mb56.gz 18.95MB Simrad multibeam vendor format
0114_20130519_194543_raw.all.mb56.gz 19.00MB Simrad multibeam vendor format
0115_20130519_204543_raw.all.mb56.gz 19.07MB Simrad multibeam vendor format
0116_20130519_214542_raw.all.mb56.gz 9.95MB Simrad multibeam vendor format
0117_20130519_222845_raw.all.mb56.gz 18.99MB Simrad multibeam vendor format
0118_20130519_232845_raw.all.mb56.gz 19.00MB Simrad multibeam vendor format
0119_20130520_002845_raw.all.mb56.gz 19.10MB Simrad multibeam vendor format
0120_20130520_012845_raw.all.mb56.gz 17.06MB Simrad multibeam vendor format
0121_20130520_022845_raw.all.mb56.gz 18.81MB Simrad multibeam vendor format
0122_20130520_032845_raw.all.mb56.gz 15.14MB Simrad multibeam vendor format
0123_20130520_042021_raw.all.mb56.gz 18.93MB Simrad multibeam vendor format
0124_20130520_052021_raw.all.mb56.gz 18.51MB Simrad multibeam vendor format
0125_20130520_062021_raw.all.mb56.gz 14.60MB Simrad multibeam vendor format
0126_20130520_070432_raw.all.mb56.gz 19.01MB Simrad multibeam vendor format
0127_20130520_080432_raw.all.mb56.gz 19.27MB Simrad multibeam vendor format
0128_20130520_090432_raw.all.mb56.gz 17.98MB Simrad multibeam vendor format
0129_20130520_100432_raw.all.mb56.gz 17.63MB Simrad multibeam vendor format
0130_20130520_110432_raw.all.mb56.gz 18.54MB Simrad multibeam vendor format
0131_20130520_120432_raw.all.mb56.gz 17.57MB Simrad multibeam vendor format
0132_20130520_130432_raw.all.mb56.gz 18.74MB Simrad multibeam vendor format
0133_20130520_140432_raw.all.mb56.gz 18.95MB Simrad multibeam vendor format
0134_20130520_150432_raw.all.mb56.gz 18.84MB Simrad multibeam vendor format
0135_20130520_160432_raw.all.mb56.gz 18.85MB Simrad multibeam vendor format
0136_20130520_170432_raw.all.mb56.gz 18.95MB Simrad multibeam vendor format
0137_20130520_180432_raw.all.mb56.gz 19.14MB Simrad multibeam vendor format
0138_20130520_190432_raw.all.mb56.gz 19.11MB Simrad multibeam vendor format
0139_20130520_200432_raw.all.mb56.gz 19.15MB Simrad multibeam vendor format
0140_20130520_210432_raw.all.mb56.gz 19.12MB Simrad multibeam vendor format
0141_20130520_220432_raw.all.mb56.gz 19.32MB Simrad multibeam vendor format
0142_20130520_230432_raw.all.mb56.gz 18.34MB Simrad multibeam vendor format
0143_20130521_000432_raw.all.mb56.gz 18.41MB Simrad multibeam vendor format
0144_20130521_010432_raw.all.mb56.gz 18.29MB Simrad multibeam vendor format
0145_20130521_020432_raw.all.mb56.gz 18.44MB Simrad multibeam vendor format
0146_20130521_030432_raw.all.mb56.gz 18.55MB Simrad multibeam vendor format
0147_20130521_040432_raw.all.mb56.gz 18.67MB Simrad multibeam vendor format
0148_20130521_050432_raw.all.mb56.gz 18.67MB Simrad multibeam vendor format
0149_20130521_060432_raw.all.mb56.gz 18.67MB Simrad multibeam vendor format
0150_20130521_070432_raw.all.mb56.gz 18.73MB Simrad multibeam vendor format
0151_20130521_080432_raw.all.mb56.gz 19.30MB Simrad multibeam vendor format
0152_20130521_090432_raw.all.mb56.gz 19.35MB Simrad multibeam vendor format
0153_20130521_100432_raw.all.mb56.gz 19.22MB Simrad multibeam vendor format
0154_20130521_110432_raw.all.mb56.gz 19.13MB Simrad multibeam vendor format
0155_20130521_120432_raw.all.mb56.gz 19.33MB Simrad multibeam vendor format
0156_20130521_130432_raw.all.mb56.gz 19.15MB Simrad multibeam vendor format
0157_20130521_140432_raw.all.mb56.gz 19.11MB Simrad multibeam vendor format
0158_20130521_150432_raw.all.mb56.gz 18.00MB Simrad multibeam vendor format
0159_20130521_160432_raw.all.mb56.gz 17.53MB Simrad multibeam vendor format
0160_20130521_170432_raw.all.mb56.gz 15.10MB Simrad multibeam vendor format
0161_20130521_180432_raw.all.mb56.gz 15.17MB Simrad multibeam vendor format
0162_20130521_190432_raw.all.mb56.gz 15.19MB Simrad multibeam vendor format
0163_20130521_200432_raw.all.mb56.gz 15.15MB Simrad multibeam vendor format
0164_20130521_210432_raw.all.mb56.gz 15.17MB Simrad multibeam vendor format
0165_20130521_220432_raw.all.mb56.gz 15.10MB Simrad multibeam vendor format
0166_20130521_230432_raw.all.mb56.gz 15.00MB Simrad multibeam vendor format
0167_20130522_000432_raw.all.mb56.gz 14.98MB Simrad multibeam vendor format
0168_20130522_010431_raw.all.mb56.gz 15.06MB Simrad multibeam vendor format
0169_20130522_020432_raw.all.mb56.gz 14.94MB Simrad multibeam vendor format
0170_20130522_030432_raw.all.mb56.gz 15.03MB Simrad multibeam vendor format
0171_20130522_040432_raw.all.mb56.gz 17.02MB Simrad multibeam vendor format
0172_20130522_050431_raw.all.mb56.gz 17.27MB Simrad multibeam vendor format
0173_20130522_060432_raw.all.mb56.gz 17.59MB Simrad multibeam vendor format
0174_20130522_070431_raw.all.mb56.gz 7.28MB Simrad multibeam vendor format
0175_20130522_072933_raw.all.mb56.gz 17.70MB Simrad multibeam vendor format
0176_20130522_082933_raw.all.mb56.gz 17.70MB Simrad multibeam vendor format
0177_20130522_092933_raw.all.mb56.gz 19.05MB Simrad multibeam vendor format
0178_20130522_102933_raw.all.mb56.gz 17.09MB Simrad multibeam vendor format
0179_20130522_112933_raw.all.mb56.gz 16.31MB Simrad multibeam vendor format
0180_20130522_122933_raw.all.mb56.gz 7.16MB Simrad multibeam vendor format
0181_20130522_141748_raw.all.mb56.gz 16.11MB Simrad multibeam vendor format
0182_20130522_151748_raw.all.mb56.gz 15.66MB Simrad multibeam vendor format
0183_20130522_161748_raw.all.mb56.gz 15.56MB Simrad multibeam vendor format
0184_20130522_171748_raw.all.mb56.gz 15.09MB Simrad multibeam vendor format
0185_20130522_181748_raw.all.mb56.gz 15.15MB Simrad multibeam vendor format
0186_20130522_191748_raw.all.mb56.gz 15.10MB Simrad multibeam vendor format
0187_20130522_201748_raw.all.mb56.gz 15.16MB Simrad multibeam vendor format
0188_20130522_211748_raw.all.mb56.gz 15.15MB Simrad multibeam vendor format
0189_20130522_221748_raw.all.mb56.gz 14.91MB Simrad multibeam vendor format
0190_20130522_231748_raw.all.mb56.gz 19.05MB Simrad multibeam vendor format
0191_20130523_001748_raw.all.mb56.gz 19.13MB Simrad multibeam vendor format
0192_20130523_011749_raw.all.mb56.gz 20.12MB Simrad multibeam vendor format
0193_20130523_021749_raw.all.mb56.gz 21.73MB Simrad multibeam vendor format
0194_20130523_031749_raw.all.mb56.gz 19.63MB Simrad multibeam vendor format
0195_20130523_041749_raw.all.mb56.gz 10.13MB Simrad multibeam vendor format
0196_20130523_053109_raw.all.mb56.gz 23.38MB Simrad multibeam vendor format
0197_20130523_063109_raw.all.mb56.gz 1.63MB Simrad multibeam vendor format
0198_20130523_064108_raw.all.mb56.gz 22.39MB Simrad multibeam vendor format
0199_20130523_074108_raw.all.mb56.gz 19.66MB Simrad multibeam vendor format
0200_20130523_084108_raw.all.mb56.gz 19.73MB Simrad multibeam vendor format
0201_20130523_094108_raw.all.mb56.gz 23.02MB Simrad multibeam vendor format
0202_20130523_104108_raw.all.mb56.gz 23.47MB Simrad multibeam vendor format
0203_20130523_114108_raw.all.mb56.gz 23.20MB Simrad multibeam vendor format
0204_20130523_124108_raw.all.mb56.gz 23.25MB Simrad multibeam vendor format
0205_20130523_134108_raw.all.mb56.gz 30.28MB Simrad multibeam vendor format
0206_20130523_144108_raw.all.mb56.gz 21.07MB Simrad multibeam vendor format
0207_20130523_154107_raw.all.mb56.gz 21.50MB Simrad multibeam vendor format
0208_20130523_164107_raw.all.mb56.gz 24.52MB Simrad multibeam vendor format
0209_20130523_174107_raw.all.mb56.gz 21.94MB Simrad multibeam vendor format
0210_20130523_184107_raw.all.mb56.gz 23.95MB Simrad multibeam vendor format
0211_20130523_194107_raw.all.mb56.gz 23.95MB Simrad multibeam vendor format
0212_20130523_204107_raw.all.mb56.gz 23.74MB Simrad multibeam vendor format
0213_20130523_214107_raw.all.mb56.gz 24.00MB Simrad multibeam vendor format
0214_20130523_224107_raw.all.mb56.gz 24.31MB Simrad multibeam vendor format
0215_20130523_234107_raw.all.mb56.gz 24.31MB Simrad multibeam vendor format
0216_20130524_004107_raw.all.mb56.gz 22.79MB Simrad multibeam vendor format
0217_20130524_014107_raw.all.mb56.gz 21.05MB Simrad multibeam vendor format
0218_20130524_024107_raw.all.mb56.gz 21.23MB Simrad multibeam vendor format
0219_20130524_034107_raw.all.mb56.gz 22.31MB Simrad multibeam vendor format
0220_20130524_044107_raw.all.mb56.gz 20.54MB Simrad multibeam vendor format
0221_20130524_054107_raw.all.mb56.gz 21.16MB Simrad multibeam vendor format
0222_20130524_064107_raw.all.mb56.gz 21.48MB Simrad multibeam vendor format
0223_20130524_074107_raw.all.mb56.gz 20.61MB Simrad multibeam vendor format
0224_20130524_084107_raw.all.mb56.gz 21.23MB Simrad multibeam vendor format
0225_20130524_094107_raw.all.mb56.gz 22.86MB Simrad multibeam vendor format
0226_20130524_104107_raw.all.mb56.gz 23.24MB Simrad multibeam vendor format
0227_20130524_114107_raw.all.mb56.gz 21.71MB Simrad multibeam vendor format
0228_20130524_124107_raw.all.mb56.gz 21.37MB Simrad multibeam vendor format
0229_20130524_134107_raw.all.mb56.gz 21.72MB Simrad multibeam vendor format
0230_20130524_144107_raw.all.mb56.gz 22.53MB Simrad multibeam vendor format
0231_20130524_154107_raw.all.mb56.gz 22.08MB Simrad multibeam vendor format
0232_20130524_164107_raw.all.mb56.gz 23.71MB Simrad multibeam vendor format
0233_20130524_174107_raw.all.mb56.gz 23.53MB Simrad multibeam vendor format
0234_20130524_184107_raw.all.mb56.gz 23.34MB Simrad multibeam vendor format
0235_20130524_194107_raw.all.mb56.gz 23.52MB Simrad multibeam vendor format
0236_20130524_204107_raw.all.mb56.gz 7.75MB Simrad multibeam vendor format
0236_20130524_210232_raw.all.mb56.gz 22.56MB Simrad multibeam vendor format
0237_20130524_220232_raw.all.mb56.gz 22.53MB Simrad multibeam vendor format
0238_20130524_230231_raw.all.mb56.gz 23.20MB Simrad multibeam vendor format
0239_20130525_000232_raw.all.mb56.gz 22.81MB Simrad multibeam vendor format
0240_20130525_010232_raw.all.mb56.gz 22.15MB Simrad multibeam vendor format
0241_20130525_020232_raw.all.mb56.gz 22.11MB Simrad multibeam vendor format
0242_20130525_030231_raw.all.mb56.gz 21.80MB Simrad multibeam vendor format
0243_20130525_040231_raw.all.mb56.gz 7.67MB Simrad multibeam vendor format
0244_20130525_044920_raw.all.mb56.gz 21.90MB Simrad multibeam vendor format
0245_20130525_054920_raw.all.mb56.gz 21.78MB Simrad multibeam vendor format
0246_20130525_064920_raw.all.mb56.gz 22.96MB Simrad multibeam vendor format
0247_20130525_074920_raw.all.mb56.gz 21.27MB Simrad multibeam vendor format
0248_20130525_084920_raw.all.mb56.gz 7.35MB Simrad multibeam vendor format
0249_20130525_092634_raw.all.mb56.gz 21.53MB Simrad multibeam vendor format
0250_20130525_102634_raw.all.mb56.gz 22.83MB Simrad multibeam vendor format
0251_20130525_112634_raw.all.mb56.gz 22.16MB Simrad multibeam vendor format
0252_20130525_122634_raw.all.mb56.gz 22.75MB Simrad multibeam vendor format
0253_20130525_132634_raw.all.mb56.gz 23.15MB Simrad multibeam vendor format
0254_20130525_142637_raw.all.mb56.gz 22.02MB Simrad multibeam vendor format
0255_20130525_152637_raw.all.mb56.gz 18.42MB Simrad multibeam vendor format
0256_20130525_162637_raw.all.mb56.gz 21.84MB Simrad multibeam vendor format
0257_20130525_172637_raw.all.mb56.gz 23.09MB Simrad multibeam vendor format
0258_20130525_182637_raw.all.mb56.gz 22.29MB Simrad multibeam vendor format
0259_20130525_192637_raw.all.mb56.gz 22.39MB Simrad multibeam vendor format
0260_20130525_202637_raw.all.mb56.gz 22.37MB Simrad multibeam vendor format
0261_20130525_212637_raw.all.mb56.gz 22.21MB Simrad multibeam vendor format
0262_20130525_222637_raw.all.mb56.gz 22.26MB Simrad multibeam vendor format
0263_20130525_232637_raw.all.mb56.gz 22.29MB Simrad multibeam vendor format
0264_20130526_002637_raw.all.mb56.gz 21.16MB Simrad multibeam vendor format
0265_20130526_012637_raw.all.mb56.gz 6.07MB Simrad multibeam vendor format
0266_20130526_014615_raw.all.mb56.gz 22.63MB Simrad multibeam vendor format
0267_20130526_024615_raw.all.mb56.gz 2.37MB Simrad multibeam vendor format
0268_20130526_025808_raw.all.mb56.gz 25.39MB Simrad multibeam vendor format
0269_20130526_035808_raw.all.mb56.gz 24.84MB Simrad multibeam vendor format
0270_20130526_045808_raw.all.mb56.gz 24.26MB Simrad multibeam vendor format
0271_20130526_055808_raw.all.mb56.gz 23.94MB Simrad multibeam vendor format
0272_20130526_065808_raw.all.mb56.gz 22.43MB Simrad multibeam vendor format
0273_20130526_075808_raw.all.mb56.gz 17.70MB Simrad multibeam vendor format
0274_20130526_085808_raw.all.mb56.gz 29.49MB Simrad multibeam vendor format
0275_20130526_095808_raw.all.mb56.gz 28.12MB Simrad multibeam vendor format
0276_20130526_105808_raw.all.mb56.gz 23.52MB Simrad multibeam vendor format
0277_20130526_115808_raw.all.mb56.gz 21.07MB Simrad multibeam vendor format
0278_20130526_125808_raw.all.mb56.gz 20.98MB Simrad multibeam vendor format
0279_20130526_135808_raw.all.mb56.gz 27.78MB Simrad multibeam vendor format
0280_20130526_145808_raw.all.mb56.gz 20.48MB Simrad multibeam vendor format
0281_20130526_155808_raw.all.mb56.gz 16.82MB Simrad multibeam vendor format
0282_20130526_165808_raw.all.mb56.gz 19.39MB Simrad multibeam vendor format
0283_20130526_175807_raw.all.mb56.gz 20.50MB Simrad multibeam vendor format
0284_20130526_185807_raw.all.mb56.gz 19.98MB Simrad multibeam vendor format
0285_20130526_195808_raw.all.mb56.gz 22.99MB Simrad multibeam vendor format
0286_20130526_205807_raw.all.mb56.gz 22.86MB Simrad multibeam vendor format
0287_20130526_215807_raw.all.mb56.gz 18.43MB Simrad multibeam vendor format
0288_20130526_225807_raw.all.mb56.gz 18.37MB Simrad multibeam vendor format
0289_20130526_235807_raw.all.mb56.gz 17.86MB Simrad multibeam vendor format
0290_20130527_005807_raw.all.mb56.gz 18.52MB Simrad multibeam vendor format
0291_20130527_015807_raw.all.mb56.gz 18.85MB Simrad multibeam vendor format
0292_20130527_025807_raw.all.mb56.gz 18.43MB Simrad multibeam vendor format
0293_20130527_035807_raw.all.mb56.gz 19.81MB Simrad multibeam vendor format
0294_20130527_045807_raw.all.mb56.gz 20.68MB Simrad multibeam vendor format
0295_20130527_055807_raw.all.mb56.gz 21.64MB Simrad multibeam vendor format
0296_20130527_065807_raw.all.mb56.gz 21.24MB Simrad multibeam vendor format
0297_20130527_075807_raw.all.mb56.gz 20.45MB Simrad multibeam vendor format
0298_20130527_085807_raw.all.mb56.gz 22.21MB Simrad multibeam vendor format
0299_20130527_095807_raw.all.mb56.gz 23.26MB Simrad multibeam vendor format
0300_20130527_105807_raw.all.mb56.gz 23.35MB Simrad multibeam vendor format
0301_20130527_115807_raw.all.mb56.gz 2.40MB Simrad multibeam vendor format
0301_20130527_120659_raw.all.mb56.gz 23.33MB Simrad multibeam vendor format
0302_20130527_130659_raw.all.mb56.gz 22.47MB Simrad multibeam vendor format
0303_20130527_140659_raw.all.mb56.gz 22.72MB Simrad multibeam vendor format
0304_20130527_150659_raw.all.mb56.gz 22.97MB Simrad multibeam vendor format
0305_20130527_160659_raw.all.mb56.gz 22.38MB Simrad multibeam vendor format
0306_20130527_170659_raw.all.mb56.gz 22.77MB Simrad multibeam vendor format
0307_20130527_180659_raw.all.mb56.gz 22.37MB Simrad multibeam vendor format
0308_20130527_190659_raw.all.mb56.gz 22.91MB Simrad multibeam vendor format
0309_20130527_200659_raw.all.mb56.gz 22.91MB Simrad multibeam vendor format
0310_20130527_210659_raw.all.mb56.gz 22.23MB Simrad multibeam vendor format
0311_20130527_220659_raw.all.mb56.gz 22.78MB Simrad multibeam vendor format
0312_20130527_230659_raw.all.mb56.gz 22.79MB Simrad multibeam vendor format
0313_20130528_000659_raw.all.mb56.gz 22.53MB Simrad multibeam vendor format
0314_20130528_010659_raw.all.mb56.gz 22.79MB Simrad multibeam vendor format
0315_20130528_020659_raw.all.mb56.gz 23.93MB Simrad multibeam vendor format
0316_20130528_030659_raw.all.mb56.gz 21.36MB Simrad multibeam vendor format
0317_20130528_040659_raw.all.mb56.gz 20.63MB Simrad multibeam vendor format
0318_20130528_050659_raw.all.mb56.gz 21.91MB Simrad multibeam vendor format
0319_20130528_060659_raw.all.mb56.gz 23.31MB Simrad multibeam vendor format
0320_20130528_070659_raw.all.mb56.gz 25.54MB Simrad multibeam vendor format
0321_20130528_080659_raw.all.mb56.gz 21.87MB Simrad multibeam vendor format
0322_20130528_090659_raw.all.mb56.gz 26.77MB Simrad multibeam vendor format
0323_20130528_100658_raw.all.mb56.gz 22.85MB Simrad multibeam vendor format
0324_20130528_110658_raw.all.mb56.gz 22.86MB Simrad multibeam vendor format
0325_20130528_120658_raw.all.mb56.gz 21.94MB Simrad multibeam vendor format
0326_20130528_130658_raw.all.mb56.gz 24.39MB Simrad multibeam vendor format
0327_20130528_140658_raw.all.mb56.gz 26.47MB Simrad multibeam vendor format
0328_20130528_150658_raw.all.mb56.gz 31.13MB Simrad multibeam vendor format
0329_20130528_160658_raw.all.mb56.gz 3.83MB Simrad multibeam vendor format
0329_20130528_161606_raw.all.mb56.gz 32.9KB Simrad multibeam vendor format
0330_20130528_162635_raw.all.mb56.gz 22.10MB Simrad multibeam vendor format
0331_20130528_172635_raw.all.mb56.gz 18.96MB Simrad multibeam vendor format
0332_20130528_182635_raw.all.mb56.gz 22.10MB Simrad multibeam vendor format
0333_20130528_192635_raw.all.mb56.gz 24.27MB Simrad multibeam vendor format
0334_20130528_202635_raw.all.mb56.gz 21.18MB Simrad multibeam vendor format
0335_20130528_212635_raw.all.mb56.gz 19.46MB Simrad multibeam vendor format
0336_20130528_222635_raw.all.mb56.gz 18.51MB Simrad multibeam vendor format
0337_20130528_232635_raw.all.mb56.gz 20.14MB Simrad multibeam vendor format
0338_20130529_002635_raw.all.mb56.gz 22.83MB Simrad multibeam vendor format
0339_20130529_012635_raw.all.mb56.gz 24.41MB Simrad multibeam vendor format
0340_20130529_022635_raw.all.mb56.gz 23.27MB Simrad multibeam vendor format
0341_20130529_032635_raw.all.mb56.gz 22.16MB Simrad multibeam vendor format
0342_20130529_042635_raw.all.mb56.gz 21.39MB Simrad multibeam vendor format
0343_20130529_052635_raw.all.mb56.gz 21.03MB Simrad multibeam vendor format
0344_20130529_062635_raw.all.mb56.gz 23.51MB Simrad multibeam vendor format
0345_20130529_072635_raw.all.mb56.gz 20.14MB Simrad multibeam vendor format
0346_20130529_082635_raw.all.mb56.gz 23.64MB Simrad multibeam vendor format
0347_20130529_092635_raw.all.mb56.gz 21.09MB Simrad multibeam vendor format
0348_20130529_102635_raw.all.mb56.gz 22.72MB Simrad multibeam vendor format
0349_20130529_112635_raw.all.mb56.gz 21.87MB Simrad multibeam vendor format
0350_20130529_122635_raw.all.mb56.gz 23.42MB Simrad multibeam vendor format
0351_20130529_132635_raw.all.mb56.gz 25.27MB Simrad multibeam vendor format
0352_20130529_142635_raw.all.mb56.gz 25.80MB Simrad multibeam vendor format
0353_20130529_152635_raw.all.mb56.gz 25.84MB Simrad multibeam vendor format
0354_20130529_162635_raw.all.mb56.gz 24.48MB Simrad multibeam vendor format
0355_20130529_172635_raw.all.mb56.gz 25.64MB Simrad multibeam vendor format
0356_20130529_182635_raw.all.mb56.gz 25.63MB Simrad multibeam vendor format
0357_20130529_192635_raw.all.mb56.gz 25.00MB Simrad multibeam vendor format
0358_20130529_202635_raw.all.mb56.gz 25.16MB Simrad multibeam vendor format
0359_20130529_212635_raw.all.mb56.gz 25.34MB Simrad multibeam vendor format
0360_20130529_222635_raw.all.mb56.gz 25.56MB Simrad multibeam vendor format
0361_20130529_232635_raw.all.mb56.gz 25.65MB Simrad multibeam vendor format
0362_20130530_002635_raw.all.mb56.gz 24.14MB Simrad multibeam vendor format
0363_20130530_012635_raw.all.mb56.gz 23.61MB Simrad multibeam vendor format
0364_20130530_022635_raw.all.mb56.gz 23.04MB Simrad multibeam vendor format
0365_20130530_032635_raw.all.mb56.gz 21.89MB Simrad multibeam vendor format
0366_20130530_042635_raw.all.mb56.gz 23.99MB Simrad multibeam vendor format
0367_20130530_052635_raw.all.mb56.gz 20.96MB Simrad multibeam vendor format
0368_20130530_062635_raw.all.mb56.gz 18.68MB Simrad multibeam vendor format
0369_20130530_072635_raw.all.mb56.gz 24.83MB Simrad multibeam vendor format
0370_20130530_082635_raw.all.mb56.gz 21.78MB Simrad multibeam vendor format
0371_20130530_092635_raw.all.mb56.gz 19.88MB Simrad multibeam vendor format
0372_20130530_102635_raw.all.mb56.gz 18.43MB Simrad multibeam vendor format
0373_20130530_112635_raw.all.mb56.gz 20.58MB Simrad multibeam vendor format
0374_20130530_122635_raw.all.mb56.gz 19.00MB Simrad multibeam vendor format
0375_20130530_132635_raw.all.mb56.gz 21.17MB Simrad multibeam vendor format
0376_20130530_142635_raw.all.mb56.gz 21.09MB Simrad multibeam vendor format
0377_20130530_152635_raw.all.mb56.gz 19.42MB Simrad multibeam vendor format
0378_20130530_162635_raw.all.mb56.gz 19.38MB Simrad multibeam vendor format
0379_20130530_172635_raw.all.mb56.gz 18.97MB Simrad multibeam vendor format
0380_20130530_182635_raw.all.mb56.gz 15.96MB Simrad multibeam vendor format
0381_20130530_192635_raw.all.mb56.gz 14.81MB Simrad multibeam vendor format
0382_20130530_202635_raw.all.mb56.gz 14.89MB Simrad multibeam vendor format
0383_20130530_212635_raw.all.mb56.gz 14.91MB Simrad multibeam vendor format
0384_20130530_222635_raw.all.mb56.gz 12.83MB Simrad multibeam vendor format
0384_20130530_231838_raw.all.mb56.gz 18.73MB Simrad multibeam vendor format
0385_20130531_001838_raw.all.mb56.gz 19.20MB Simrad multibeam vendor format
0386_20130531_011838_raw.all.mb56.gz 19.72MB Simrad multibeam vendor format
0387_20130531_021838_raw.all.mb56.gz 22.02MB Simrad multibeam vendor format
0388_20130531_031838_raw.all.mb56.gz 21.57MB Simrad multibeam vendor format
0389_20130531_041838_raw.all.mb56.gz 21.79MB Simrad multibeam vendor format
0390_20130531_051838_raw.all.mb56.gz 22.41MB Simrad multibeam vendor format
0391_20130531_061838_raw.all.mb56.gz 22.40MB Simrad multibeam vendor format
0392_20130531_071838_raw.all.mb56.gz 18.99MB Simrad multibeam vendor format
0393_20130531_081838_raw.all.mb56.gz 16.29MB Simrad multibeam vendor format
0394_20130531_091838_raw.all.mb56.gz 14.47MB Simrad multibeam vendor format
0395_20130531_101838_raw.all.mb56.gz 17.35MB Simrad multibeam vendor format
0396_20130531_111838_raw.all.mb56.gz 22.11MB Simrad multibeam vendor format
0397_20130531_121838_raw.all.mb56.gz 23.85MB Simrad multibeam vendor format
0398_20130531_131838_raw.all.mb56.gz 21.15MB Simrad multibeam vendor format
0399_20130531_141838_raw.all.mb56.gz 19.82MB Simrad multibeam vendor format
0400_20130531_151838_raw.all.mb56.gz 26.55MB Simrad multibeam vendor format
0401_20130531_161838_raw.all.mb56.gz 26.26MB Simrad multibeam vendor format
0402_20130531_171838_raw.all.mb56.gz 21.76MB Simrad multibeam vendor format
0403_20130531_181838_raw.all.mb56.gz 21.79MB Simrad multibeam vendor format
0404_20130531_191838_raw.all.mb56.gz 21.77MB Simrad multibeam vendor format
0405_20130531_201838_raw.all.mb56.gz 21.71MB Simrad multibeam vendor format
0406_20130531_211838_raw.all.mb56.gz 21.62MB Simrad multibeam vendor format
0407_20130531_221838_raw.all.mb56.gz 21.60MB Simrad multibeam vendor format
0408_20130531_231838_raw.all.mb56.gz 21.62MB Simrad multibeam vendor format
0409_20130601_001838_raw.all.mb56.gz 24.31MB Simrad multibeam vendor format
0410_20130601_011838_raw.all.mb56.gz 21.94MB Simrad multibeam vendor format
0411_20130601_021838_raw.all.mb56.gz 20.77MB Simrad multibeam vendor format
0412_20130601_031838_raw.all.mb56.gz 22.90MB Simrad multibeam vendor format
0413_20130601_041838_raw.all.mb56.gz 16.20MB Simrad multibeam vendor format
0414_20130601_051838_raw.all.mb56.gz 5.17MB Simrad multibeam vendor format
0416_20130601_054515_raw.all.mb56.gz 13.29MB Simrad multibeam vendor format
0417_20130601_064515_raw.all.mb56.gz 13.58MB Simrad multibeam vendor format
0418_20130601_074515_raw.all.mb56.gz 13.50MB Simrad multibeam vendor format
0419_20130601_084515_raw.all.mb56.gz 13.27MB Simrad multibeam vendor format
0420_20130601_094515_raw.all.mb56.gz 14.18MB Simrad multibeam vendor format
0421_20130601_104515_raw.all.mb56.gz 14.30MB Simrad multibeam vendor format
0422_20130601_114515_raw.all.mb56.gz 14.66MB Simrad multibeam vendor format
0423_20130601_124515_raw.all.mb56.gz 13.76MB Simrad multibeam vendor format
0424_20130601_134519_raw.all.mb56.gz 13.74MB Simrad multibeam vendor format
0425_20130601_144519_raw.all.mb56.gz 13.79MB Simrad multibeam vendor format
0426_20130601_154519_raw.all.mb56.gz 13.78MB Simrad multibeam vendor format
0427_20130601_164519_raw.all.mb56.gz 13.78MB Simrad multibeam vendor format
0428_20130601_174519_raw.all.mb56.gz 13.79MB Simrad multibeam vendor format
0429_20130601_184519_raw.all.mb56.gz 14.10MB Simrad multibeam vendor format
0430_20130601_194518_raw.all.mb56.gz 11.31MB Simrad multibeam vendor format
0431_20130601_204518_raw.all.mb56.gz 14.35MB Simrad multibeam vendor format
0432_20130601_214518_raw.all.mb56.gz 20.65MB Simrad multibeam vendor format
0433_20130601_224518_raw.all.mb56.gz 22.51MB Simrad multibeam vendor format
0434_20130601_234518_raw.all.mb56.gz 28.30MB Simrad multibeam vendor format
0435_20130602_004518_raw.all.mb56.gz 29.43MB Simrad multibeam vendor format
0436_20130602_014518_raw.all.mb56.gz 29.28MB Simrad multibeam vendor format
0437_20130602_024518_raw.all.mb56.gz 32.05MB Simrad multibeam vendor format
0438_20130602_034518_raw.all.mb56.gz 34.20MB Simrad multibeam vendor format
0439_20130602_044518_raw.all.mb56.gz 31.90MB Simrad multibeam vendor format
0440_20130602_054518_raw.all.mb56.gz 25.25MB Simrad multibeam vendor format
0441_20130602_064518_raw.all.mb56.gz 20.90MB Simrad multibeam vendor format
0442_20130602_074518_raw.all.mb56.gz 23.13MB Simrad multibeam vendor format
0443_20130602_084518_raw.all.mb56.gz 20.39MB Simrad multibeam vendor format
0444_20130602_094518_raw.all.mb56.gz 22.95MB Simrad multibeam vendor format
0445_20130602_104518_raw.all.mb56.gz 19.08MB Simrad multibeam vendor format
0446_20130602_114518_raw.all.mb56.gz 23.42MB Simrad multibeam vendor format
0447_20130602_124518_raw.all.mb56.gz 22.90MB Simrad multibeam vendor format
0448_20130602_134518_raw.all.mb56.gz 25.14MB Simrad multibeam vendor format
0449_20130602_144518_raw.all.mb56.gz 26.51MB Simrad multibeam vendor format
0450_20130602_154518_raw.all.mb56.gz 25.02MB Simrad multibeam vendor format
0451_20130602_164518_raw.all.mb56.gz 24.99MB Simrad multibeam vendor format
0452_20130602_174518_raw.all.mb56.gz 27.32MB Simrad multibeam vendor format
0453_20130602_184518_raw.all.mb56.gz 23.37MB Simrad multibeam vendor format
0454_20130602_194518_raw.all.mb56.gz 23.82MB Simrad multibeam vendor format
0455_20130602_204518_raw.all.mb56.gz 23.64MB Simrad multibeam vendor format
0456_20130602_214518_raw.all.mb56.gz 23.25MB Simrad multibeam vendor format
0457_20130602_224518_raw.all.mb56.gz 21.56MB Simrad multibeam vendor format
0458_20130602_234518_raw.all.mb56.gz 17.83MB Simrad multibeam vendor format
0459_20130603_004518_raw.all.mb56.gz 16.84MB Simrad multibeam vendor format
0460_20130603_014518_raw.all.mb56.gz 20.14MB Simrad multibeam vendor format
0461_20130603_024518_raw.all.mb56.gz 17.87MB Simrad multibeam vendor format
0462_20130603_034518_raw.all.mb56.gz 21.87MB Simrad multibeam vendor format
0463_20130603_044518_raw.all.mb56.gz 22.05MB Simrad multibeam vendor format
0464_20130603_054518_raw.all.mb56.gz 22.58MB Simrad multibeam vendor format
0465_20130603_064518_raw.all.mb56.gz 20.40MB Simrad multibeam vendor format
0466_20130603_074518_raw.all.mb56.gz 16.53MB Simrad multibeam vendor format
0467_20130603_084518_raw.all.mb56.gz 14.84MB Simrad multibeam vendor format
0468_20130603_094518_raw.all.mb56.gz 14.46MB Simrad multibeam vendor format
0469_20130603_104518_raw.all.mb56.gz 15.66MB Simrad multibeam vendor format
0470_20130603_114518_raw.all.mb56.gz 18.46MB Simrad multibeam vendor format
0471_20130603_124518_raw.all.mb56.gz 17.15MB Simrad multibeam vendor format
0472_20130603_134518_raw.all.mb56.gz 20.14MB Simrad multibeam vendor format
0473_20130603_144518_raw.all.mb56.gz 21.25MB Simrad multibeam vendor format
0474_20130603_154518_raw.all.mb56.gz 17.54MB Simrad multibeam vendor format
0475_20130603_164518_raw.all.mb56.gz 21.05MB Simrad multibeam vendor format
0476_20130603_174518_raw.all.mb56.gz 20.89MB Simrad multibeam vendor format
0477_20130603_184518_raw.all.mb56.gz 20.82MB Simrad multibeam vendor format
0478_20130603_194518_raw.all.mb56.gz 20.84MB Simrad multibeam vendor format
0479_20130603_204518_raw.all.mb56.gz 20.17MB Simrad multibeam vendor format
0480_20130603_214518_raw.all.mb56.gz 20.70MB Simrad multibeam vendor format
0481_20130603_224518_raw.all.mb56.gz 20.87MB Simrad multibeam vendor format
0482_20130603_234518_raw.all.mb56.gz 18.15MB Simrad multibeam vendor format
0483_20130604_004518_raw.all.mb56.gz 17.97MB Simrad multibeam vendor format
0484_20130604_014518_raw.all.mb56.gz 17.83MB Simrad multibeam vendor format
0485_20130604_024518_raw.all.mb56.gz 17.62MB Simrad multibeam vendor format
0486_20130604_034518_raw.all.mb56.gz 17.32MB Simrad multibeam vendor format
0487_20130604_044518_raw.all.mb56.gz 17.43MB Simrad multibeam vendor format
0488_20130604_054518_raw.all.mb56.gz 17.31MB Simrad multibeam vendor format
0489_20130604_064518_raw.all.mb56.gz 17.67MB Simrad multibeam vendor format
0490_20130604_074518_raw.all.mb56.gz 16.44MB Simrad multibeam vendor format
0491_20130604_084518_raw.all.mb56.gz 16.57MB Simrad multibeam vendor format
0492_20130604_094518_raw.all.mb56.gz 18.73MB Simrad multibeam vendor format
0493_20130604_104518_raw.all.mb56.gz 19.62MB Simrad multibeam vendor format
0494_20130604_114518_raw.all.mb56.gz 17.45MB Simrad multibeam vendor format
0495_20130604_124518_raw.all.mb56.gz 18.69MB Simrad multibeam vendor format
0496_20130604_134518_raw.all.mb56.gz 18.95MB Simrad multibeam vendor format
0497_20130604_144518_raw.all.mb56.gz 18.99MB Simrad multibeam vendor format
0498_20130604_154518_raw.all.mb56.gz 19.80MB Simrad multibeam vendor format
0499_20130604_164518_raw.all.mb56.gz 18.20MB Simrad multibeam vendor format
0500_20130604_174518_raw.all.mb56.gz 18.25MB Simrad multibeam vendor format
0501_20130604_184518_raw.all.mb56.gz 19.56MB Simrad multibeam vendor format
0502_20130604_194518_raw.all.mb56.gz 20.46MB Simrad multibeam vendor format
0503_20130604_204518_raw.all.mb56.gz 18.34MB Simrad multibeam vendor format
0504_20130604_214518_raw.all.mb56.gz 17.84MB Simrad multibeam vendor format
0505_20130604_224518_raw.all.mb56.gz 17.98MB Simrad multibeam vendor format
0506_20130604_234518_raw.all.mb56.gz 18.09MB Simrad multibeam vendor format
0507_20130605_004518_raw.all.mb56.gz 17.96MB Simrad multibeam vendor format
0508_20130605_014517_raw.all.mb56.gz 18.80MB Simrad multibeam vendor format
0509_20130605_024517_raw.all.mb56.gz 17.38MB Simrad multibeam vendor format
0510_20130605_034517_raw.all.mb56.gz 16.00MB Simrad multibeam vendor format
0511_20130605_044517_raw.all.mb56.gz 18.63MB Simrad multibeam vendor format
0512_20130605_054517_raw.all.mb56.gz 18.28MB Simrad multibeam vendor format
0513_20130605_064517_raw.all.mb56.gz 17.71MB Simrad multibeam vendor format
0514_20130605_074517_raw.all.mb56.gz 16.65MB Simrad multibeam vendor format
0515_20130605_084517_raw.all.mb56.gz 17.14MB Simrad multibeam vendor format
0516_20130605_094517_raw.all.mb56.gz 19.28MB Simrad multibeam vendor format
0517_20130605_104517_raw.all.mb56.gz 18.36MB Simrad multibeam vendor format
0518_20130605_114517_raw.all.mb56.gz 19.51MB Simrad multibeam vendor format
0519_20130605_124517_raw.all.mb56.gz 19.44MB Simrad multibeam vendor format
0520_20130605_134517_raw.all.mb56.gz 21.48MB Simrad multibeam vendor format
0521_20130605_144517_raw.all.mb56.gz 19.11MB Simrad multibeam vendor format
0522_20130605_154517_raw.all.mb56.gz 15.67MB Simrad multibeam vendor format
0523_20130605_164517_raw.all.mb56.gz 16.87MB Simrad multibeam vendor format
0524_20130605_174517_raw.all.mb56.gz 18.16MB Simrad multibeam vendor format
0525_20130605_184517_raw.all.mb56.gz 18.67MB Simrad multibeam vendor format
0526_20130605_194517_raw.all.mb56.gz 20.00MB Simrad multibeam vendor format
0527_20130605_204517_raw.all.mb56.gz 20.63MB Simrad multibeam vendor format
0528_20130605_214517_raw.all.mb56.gz 21.86MB Simrad multibeam vendor format
0529_20130605_224517_raw.all.mb56.gz 21.39MB Simrad multibeam vendor format
0530_20130605_234517_raw.all.mb56.gz 20.10MB Simrad multibeam vendor format
0531_20130606_004517_raw.all.mb56.gz 19.83MB Simrad multibeam vendor format
0532_20130606_014517_raw.all.mb56.gz 19.65MB Simrad multibeam vendor format
0533_20130606_024517_raw.all.mb56.gz 17.05MB Simrad multibeam vendor format
0534_20130606_034517_raw.all.mb56.gz 17.63MB Simrad multibeam vendor format
0535_20130606_044517_raw.all.mb56.gz 17.91MB Simrad multibeam vendor format
0536_20130606_054517_raw.all.mb56.gz 17.87MB Simrad multibeam vendor format
0537_20130606_064517_raw.all.mb56.gz 17.73MB Simrad multibeam vendor format
0538_20130606_074517_raw.all.mb56.gz 17.62MB Simrad multibeam vendor format
0539_20130606_084517_raw.all.mb56.gz 16.23MB Simrad multibeam vendor format
0540_20130606_094517_raw.all.mb56.gz 14.44MB Simrad multibeam vendor format
0541_20130606_104517_raw.all.mb56.gz 18.03MB Simrad multibeam vendor format
0542_20130606_114517_raw.all.mb56.gz 19.21MB Simrad multibeam vendor format
0543_20130606_124517_raw.all.mb56.gz 20.19MB Simrad multibeam vendor format
0544_20130606_134517_raw.all.mb56.gz 20.49MB Simrad multibeam vendor format
0545_20130606_144517_raw.all.mb56.gz 20.74MB Simrad multibeam vendor format
0546_20130606_154517_raw.all.mb56.gz 21.02MB Simrad multibeam vendor format
0547_20130606_164517_raw.all.mb56.gz 21.32MB Simrad multibeam vendor format
0548_20130606_174517_raw.all.mb56.gz 20.83MB Simrad multibeam vendor format
0549_20130606_184517_raw.all.mb56.gz 21.65MB Simrad multibeam vendor format
0550_20130606_194517_raw.all.mb56.gz 20.57MB Simrad multibeam vendor format
0551_20130606_204517_raw.all.mb56.gz 19.30MB Simrad multibeam vendor format
0552_20130606_214517_raw.all.mb56.gz 18.36MB Simrad multibeam vendor format
0553_20130606_224517_raw.all.mb56.gz 18.78MB Simrad multibeam vendor format
0554_20130606_234517_raw.all.mb56.gz 16.60MB Simrad multibeam vendor format
0555_20130607_004517_raw.all.mb56.gz 16.18MB Simrad multibeam vendor format
0556_20130607_014517_raw.all.mb56.gz 15.81MB Simrad multibeam vendor format
0557_20130607_024517_raw.all.mb56.gz 16.15MB Simrad multibeam vendor format
0558_20130607_034517_raw.all.mb56.gz 21.72MB Simrad multibeam vendor format
0559_20130607_044517_raw.all.mb56.gz 22.88MB Simrad multibeam vendor format
0560_20130607_054517_raw.all.mb56.gz 24.00MB Simrad multibeam vendor format
0561_20130607_064517_raw.all.mb56.gz 21.47MB Simrad multibeam vendor format
0562_20130607_074517_raw.all.mb56.gz 18.59MB Simrad multibeam vendor format
0563_20130607_084517_raw.all.mb56.gz 18.34MB Simrad multibeam vendor format
0564_20130607_094517_raw.all.mb56.gz 18.33MB Simrad multibeam vendor format
0565_20130607_104517_raw.all.mb56.gz 18.26MB Simrad multibeam vendor format
0566_20130607_114517_raw.all.mb56.gz 18.70MB Simrad multibeam vendor format
0567_20130607_124517_raw.all.mb56.gz 17.32MB Simrad multibeam vendor format
0568_20130607_134517_raw.all.mb56.gz 21.00MB Simrad multibeam vendor format
0569_20130607_144517_raw.all.mb56.gz 26.67MB Simrad multibeam vendor format
0570_20130607_153355_raw.all.mb56.gz 18.96MB Simrad multibeam vendor format
0571_20130607_163355_raw.all.mb56.gz 33.08MB Simrad multibeam vendor format
0572_20130607_173355_raw.all.mb56.gz 45.85MB Simrad multibeam vendor format
0573_20130607_183355_raw.all.mb56.gz 44.41MB Simrad multibeam vendor format
0574_20130607_193354_raw.all.mb56.gz 42.21MB Simrad multibeam vendor format
0575_20130607_203354_raw.all.mb56.gz 10.57MB Simrad multibeam vendor format
0576_20130608_065949_raw.all.mb56.gz 15.16MB Simrad multibeam vendor format
0577_20130608_075949_raw.all.mb56.gz 14.56MB Simrad multibeam vendor format
0579_20130608_092403_raw.all.mb56.gz 13.11MB Simrad multibeam vendor format
0580_20130608_102403_raw.all.mb56.gz 12.51MB Simrad multibeam vendor format
0581_20130608_112403_raw.all.mb56.gz 13.80MB Simrad multibeam vendor format
0582_20130608_122403_raw.all.mb56.gz 24.43MB Simrad multibeam vendor format
0583_20130608_132403_raw.all.mb56.gz 19.10MB Simrad multibeam vendor format
0584_20130608_142407_raw.all.mb56.gz 22.09MB Simrad multibeam vendor format
0585_20130608_152407_raw.all.mb56.gz 20.89MB Simrad multibeam vendor format
0586_20130608_162407_raw.all.mb56.gz 16.43MB Simrad multibeam vendor format
0587_20130608_172407_raw.all.mb56.gz 13.57MB Simrad multibeam vendor format
0588_20130608_182407_raw.all.mb56.gz 13.09MB Simrad multibeam vendor format
0589_20130608_192407_raw.all.mb56.gz 13.41MB Simrad multibeam vendor format
0590_20130608_202407_raw.all.mb56.gz 11.60MB Simrad multibeam vendor format
0591_20130608_212407_raw.all.mb56.gz 10.93MB Simrad multibeam vendor format
0592_20130608_222407_raw.all.mb56.gz 9.85MB Simrad multibeam vendor format
0593_20130608_232407_raw.all.mb56.gz 11.14MB Simrad multibeam vendor format
0594_20130609_002407_raw.all.mb56.gz 11.71MB Simrad multibeam vendor format
0595_20130609_012407_raw.all.mb56.gz 3.81MB Simrad multibeam vendor format
0596_20130609_014344_raw.all.mb56.gz 10.88MB Simrad multibeam vendor format
0597_20130609_024344_raw.all.mb56.gz 11.73MB Simrad multibeam vendor format
0598_20130609_034344_raw.all.mb56.gz 15.39MB Simrad multibeam vendor format
0599_20130609_044344_raw.all.mb56.gz 32.14MB Simrad multibeam vendor format
0600_20130609_054344_raw.all.mb56.gz 26.60MB Simrad multibeam vendor format
0601_20130609_064344_raw.all.mb56.gz 23.07MB Simrad multibeam vendor format
0602_20130609_074344_raw.all.mb56.gz 15.47MB Simrad multibeam vendor format
0603_20130609_084344_raw.all.mb56.gz 8.29MB Simrad multibeam vendor format
0604_20130609_094344_raw.all.mb56.gz 7.99MB Simrad multibeam vendor format
0605_20130609_104344_raw.all.mb56.gz 8.21MB Simrad multibeam vendor format
0606_20130609_114344_raw.all.mb56.gz 7.78MB Simrad multibeam vendor format
0607_20130609_124344_raw.all.mb56.gz 7.69MB Simrad multibeam vendor format
0608_20130609_134344_raw.all.mb56.gz 8.08MB Simrad multibeam vendor format
0609_20130609_144344_raw.all.mb56.gz 8.04MB Simrad multibeam vendor format
0610_20130609_154344_raw.all.mb56.gz 7.99MB Simrad multibeam vendor format
0611_20130609_164344_raw.all.mb56.gz 8.08MB Simrad multibeam vendor format
0612_20130609_174344_raw.all.mb56.gz 8.11MB Simrad multibeam vendor format
0613_20130609_184344_raw.all.mb56.gz 8.19MB Simrad multibeam vendor format
0614_20130609_194344_raw.all.mb56.gz 8.17MB Simrad multibeam vendor format
0615_20130609_204344_raw.all.mb56.gz 8.86MB Simrad multibeam vendor format
0616_20130609_214344_raw.all.mb56.gz 8.96MB Simrad multibeam vendor format
0617_20130609_224344_raw.all.mb56.gz 8.94MB Simrad multibeam vendor format
0618_20130609_234344_raw.all.mb56.gz 9.49MB Simrad multibeam vendor format
0619_20130610_004344_raw.all.mb56.gz 10.48MB Simrad multibeam vendor format
0620_20130610_014344_raw.all.mb56.gz 9.37MB Simrad multibeam vendor format
0621_20130610_024344_raw.all.mb56.gz 9.07MB Simrad multibeam vendor format
0622_20130610_034344_raw.all.mb56.gz 9.53MB Simrad multibeam vendor format
0623_20130610_044344_raw.all.mb56.gz 221.3KB Simrad multibeam vendor format
0624_20130610_044508_raw.all.mb56.gz 0.80MB Simrad multibeam vendor format
0625_20130610_045009_raw.all.mb56.gz 9.55MB Simrad multibeam vendor format
0626_20130610_055009_raw.all.mb56.gz 10.23MB Simrad multibeam vendor format
0627_20130610_065009_raw.all.mb56.gz 9.84MB Simrad multibeam vendor format
0628_20130610_075009_raw.all.mb56.gz 9.25MB Simrad multibeam vendor format
0629_20130610_085009_raw.all.mb56.gz 9.38MB Simrad multibeam vendor format
0630_20130610_095009_raw.all.mb56.gz 9.83MB Simrad multibeam vendor format
0631_20130610_105009_raw.all.mb56.gz 9.92MB Simrad multibeam vendor format
0632_20130610_115009_raw.all.mb56.gz 9.44MB Simrad multibeam vendor format
0633_20130610_125009_raw.all.mb56.gz 9.38MB Simrad multibeam vendor format
0634_20130610_135009_raw.all.mb56.gz 8.36MB Simrad multibeam vendor format
0635_20130610_145009_raw.all.mb56.gz 7.75MB Simrad multibeam vendor format
0636_20130610_155009_raw.all.mb56.gz 7.84MB Simrad multibeam vendor format
0637_20130610_165009_raw.all.mb56.gz 7.98MB Simrad multibeam vendor format
0638_20130610_175009_raw.all.mb56.gz 7.88MB Simrad multibeam vendor format
0640_20130610_192028_raw.all.mb56.gz 2.20MB Simrad multibeam vendor format
0641_20130610_193631_raw.all.mb56.gz 7.89MB Simrad multibeam vendor format
0642_20130610_203631_raw.all.mb56.gz 8.02MB Simrad multibeam vendor format
0643_20130610_213631_raw.all.mb56.gz 8.12MB Simrad multibeam vendor format
0644_20130610_223631_raw.all.mb56.gz 8.09MB Simrad multibeam vendor format
0646_20130611_000248_raw.all.mb56.gz 8.07MB Simrad multibeam vendor format
0647_20130611_010248_raw.all.mb56.gz 8.36MB Simrad multibeam vendor format
0648_20130611_020248_raw.all.mb56.gz 8.34MB Simrad multibeam vendor format
0649_20130611_030248_raw.all.mb56.gz 8.12MB Simrad multibeam vendor format
0650_20130611_040248_raw.all.mb56.gz 8.52MB Simrad multibeam vendor format
0651_20130611_050248_raw.all.mb56.gz 8.58MB Simrad multibeam vendor format
0652_20130611_060248_raw.all.mb56.gz 8.78MB Simrad multibeam vendor format
0653_20130611_070248_raw.all.mb56.gz 8.34MB Simrad multibeam vendor format
0654_20130611_080248_raw.all.mb56.gz 8.54MB Simrad multibeam vendor format
0655_20130611_090248_raw.all.mb56.gz 21.30MB Simrad multibeam vendor format

Metadata Files: 3

Files File Size Description
NBP1304_Multibeam.xml NGDC created ISO metadata
NBP1304.xml 16.6KB XML metadata file
mb_bag_info.tar.gz 18.0KB Additional cruise information